Flag for Belarus Weather past 2 weeks in Vitebsk, Belarus

Now
52 °F

Partly sunny.


Feels Like: 49 °F
Forecast: 32 / 54 °F
Wind: 8 mph from North

Location: Vitebsk


UV Index: 3 (Moderate)

Visibility: N/A


Pressure: 30.12 "Hg

Humidity: 47%

Dew point: 32 °F

Location of VitebskLocation

Historic Weather in Vitebsk

°F

Vitebsk temperature yesterday

Maximum temperature yesterday: 45 °F (at 1:00 PM)
Minimum temperature yesterday: 41 °F (at 8:00 AM)
Average temperature yesterday: 43 °F

Past Weeks' High & Low Weather Summary

 TemperatureHumidityPressure
High52 °F (Apr 6, 4:00 PM)100% (Apr 8, 8:00 AM)30.39 "Hg (Apr 8, 8:00 AM)
Low23 °F (Apr 3, 7:00 AM)20% (Apr 6, 2:00 PM)29.56 "Hg (Apr 14, 9:00 AM)
Average41 °F61%29.93 "Hg
* Reported Apr 1 4:00 PM — Apr 16 4:30 PM, Vitebsk, Weather by CustomWeather, © 2014

Note: Actual official high and low records may vary slightly from our data, if they occured in-between our weather recording intervals... More about our weather records

Advertising

Historic Weather Conditions — Data for Previous 24 hours

 ConditionsComfort  
Time TempWeatherWind HumidityBarometerVisibility
4:30 PM
Apr 16
48 °FPartly sunny.8 mph58%30.12 "HgN/A
4:00 PM48 °FPartly sunny.8 mph58%30.12 "HgN/A
3:30 PM50 °FPartly sunny.8 mph58%30.12 "HgN/A
3:00 PM50 °FPartly sunny.8 mph58%30.09 "HgN/A
2:30 PM48 °FPartly sunny.6 mph58%30.09 "HgN/A
2:00 PM48 °FPartly sunny.6 mph58%30.09 "HgN/A
1:30 PM48 °FPartly sunny.6 mph62%30.09 "HgN/A
1:00 PM48 °FPartly sunny.6 mph62%30.07 "HgN/A
12:30 PM48 °FPartly sunny.6 mph71%30.07 "HgN/A
12:00 PM48 °FPartly sunny.6 mph71%30.07 "Hg4 mi
11:30 AM45 °FPartly sunny.8 mph76%30.07 "Hg4 mi
11:00 AM45 °FFog.6 mph76%30.04 "Hg3 mi
10:00 AM39 °FFog.3 mph93%30.04 "Hg1 mi
9:00 AM36 °FFog.1 mph100%30.01 "Hg1 mi
8:00 AM32 °FFog.No wind100%30.01 "Hg0 mi
8:00 PM
Apr 15
43 °FPartly sunny.6 mph100%29.77 "HgN/A
7:00 PM45 °FPartly sunny.8 mph87%29.74 "HgN/A
6:00 PM45 °FPartly sunny.8 mph93%29.71 "HgN/A
5:00 PM45 °FPartly sunny.6 mph87%29.71 "HgN/A
Weather by CustomWeather, © 2014

See weather overview